< < Back
Terminal Aerodrome Forecast


Current Version              Previous Versions:   1  2  3  4  5  6  7  8  9  

Terminal Aerodrome Forecast

735
FTAK31 PAJN 030526
TAFAHN
TAF
PAHN 030526Z 0306/0406 31008KT P6SM SCT080
     FM030900 31005KT P6SM SKC
     FM031400 31010KT P6SM SKC
     FM032200 VRB05KT P6SM SKC
      AMD LTD TO CLD VIS AND WIND=



Latest METAR

717
SAUS70 KWBC 030600
MTRAHN
METAR KAHN 030551Z AUTO 00000KT 10SM CLR 22/21 A3000 RMK AO2 SLP150
T02220211 10272 20222 58008


USA.gov is the U.S. government's official web portal to all federal, state and local government web resources and services.